Regional Weather Roundup
Issued by NWS

Home | Current Version | Previous Version | Text Only | Print | Product List | Glossary Off
Versions: 1 2 3 4 5 6 7 8 9 10 11 12 13 14 15 16 17 18 19 20 21 22 23 24 25 26 27 28 29 30 31 32 33 34 35 36 37 38 39 40 41 42 43 44 45 46 47 48 49 50

000
ASUS43 KLSX 281007
RWRMO

WEATHER SUMMARY FOR MISSOURI
NATIONAL WEATHER SERVICE SPRINGFIELD MO
500 AM CDT MON JUL 28 2014

NOTE: "FAIR" INDICATES FEW OR NO CLOUDS BELOW 12,000 FEET WITH NO
       SIGNIFICANT WEATHER AND/OR OBSTRUCTIONS TO VISIBILITY.
       CURRENT SKY AND/OR WEATHER CONDITIONS ARE NOT AVAILABLE FOR
       CHILLICOTHE AND FARMINGTON.

MOZ001>031-035>038-043-044-053-054-281100-
...NORTHERN AND WESTERN MISSOURI...

CITY           SKY/WX    TMP DP  RH WIND       PRES   REMARKS
KANSAS CTY INT CLEAR     60  56  86 N6        30.16R
KANSAS C DTWN  CLEAR     66  57  72 N6        30.15R
LEE`S SUMMIT   CLEAR     64  57  78 NW5       30.16R
ST JOSEPH      CLEAR     60  56  86 N3        30.18R
CHILLICOTHE      N/A     64  57  78 VRB3      30.14R
KIRKSVILLE     CLEAR     61  57  87 NW6       30.12R

$$
MOZ066>068-077>081-088>096-101>105-281100-
...SOUTHWEST MISSOURI...

CITY           SKY/WX    TMP DP  RH WIND       PRES   REMARKS
SPRINGFIELD    CLEAR     61  56  83 N7        30.14R
JOPLIN         CLEAR     62  58  86 N6        30.16R

$$
MOZ032>034-039>042-045>050-055>058-069>072-281100-
...CENTRAL MISSOURI...

CITY           SKY/WX    TMP DP  RH WIND       PRES   REMARKS
COLUMBIA       CLEAR     62  57  83 NW8       30.09R
JEFFERSON CITY CLEAR     64  57  78 NW5       30.09R
ROLLA          CLEAR     62  56  80 NW8       30.08R
SEDALIA        CLEAR     63  57  81 NW8       30.13R
WHITEMAN AFB   CLEAR     62  49  61 NW6       30.13R
OSAGE BEACH    CLEAR     64  55  72 CALM      30.11R

$$
MOZ051-052-059>065-281100-
...EAST CENTRAL MISSOURI...

CITY           SKY/WX    TMP DP  RH WIND       PRES   REMARKS
ST LOUIS INTL  CLEAR     66  59  78 NW6       30.03R
SPIRIT OF STL  CLEAR     65  58  78 NW8       30.03R
ST CHARLES     CLEAR     67  59  75 NW13      30.02R

$$
MOZ072>076-082>087-097>100-106>115-281100-
...SOUTH CENTRAL AND SOUTHEAST MISSOURI...

CITY           SKY/WX    TMP DP  RH WIND       PRES   REMARKS
CAPE GIRARDEAU CLEAR     63  59  87 W7        30.01R
FARMINGTON     CLEAR     64  55  72 NW3       30.07R
POPLAR BLUFF   CLEAR     66  57  72 NW5       30.03R
WEST PLAINS    CLEAR     64  57  78 NW6       30.11R

$$


USA.gov is the U.S. government's official web portal to all federal, state and local government web resources and services.